[[{"header":{"parameterUnit":"m.s-1","parameterCategory":2,"la1":30.2991,"la2":30.254,"lo1":-89.0895,"lo2":-89.0444,"dy":0.0017,"dx":0.0017,"nx":28,"ny":28,"refTime":"2024-06-10T03:00:00:Z","depth":"0","parameterNumber":2,"parameterNumberName":"U-component_of_CURRENTS"},"data":[0,0,0,0,0,0,0,0,0,0,0,0,0,0,0,0,0,0,0,0,0,0,0,0,0,0,0,0,0,0,0,0,0,0,0,0,0,0,0,0,0,0,0,0,0,0,0,0,0,0,0,0,0,0,0,0,0,0,0.3544,0.3546,0,0.3695,0.3697,0.3698,0.376,0.376,0.3759,0.3759,0.3803,0.3804,0.3805,0,0,0,0,0,0,0,0,0,0,0,0,0,0.3273,0.3277,0.3544,0.3546,0.3548,0.3695,0.3697,0.3698,0.376,0.376,0.3759,0.3759,0.3802,0.3804,0.3805,0,0,0,0,0,0,0,0,0,0,0,0,0,0.3401,0.3279,0.3543,0.3598,0.3605,0.3695,0.3697,0.3699,0.376,0.376,0.3759,0.3759,0.3802,0.3804,0.3805,0.3819,0,0,0.3811,0.3812,0,0,0,0,0,0,0,0,0.3394,0.3411,0.3588,0.3595,0.3602,0.3711,0.3617,0.3735,0.376,0.3698,0.3759,0.3759,0.3764,0.3769,0.3795,0.3821,0.3823,0.3811,0.3812,0.3813,0.3814,0,0,0,0,0,0,0,0.3385,0.3404,0.3601,0.3591,0.3599,0.3604,0.3622,0.364,0.3726,0.3703,0.3709,0.373,0.3767,0.3793,0.3796,0.3824,0.3811,0.3813,0.3814,0.3815,0.3871,0.3872,0,0,0,0,0,0,0.3375,0.3397,0.3596,0.3606,0.3499,0.3609,0.3629,0.3674,0.3728,0.3738,0.373,0.3733,0.379,0.3794,0.3798,0.384,0.3813,0.3815,0.3816,0.3871,0.3871,0.3872,0,0,0,0,0,0,0.3369,0.3392,0.359,0.3505,0.3531,0.3614,0.3664,0.3677,0.3704,0.375,0.3757,0.3743,0.379,0.3795,0.3827,0.3841,0.3816,0.3817,0.387,0.3871,0.3871,0.391,0,0,0,0,0,0,0.3361,0.339,0.3414,0.3505,0.3535,0.365,0.3665,0.368,0.3719,0.3723,0.3764,0.3768,0.3791,0.3824,0.3828,0.3843,0.3819,0.387,0.3871,0.3871,0.3908,0.3911,0.3914,0,0,0,0,0,0.3351,0.3394,0.3415,0.3438,0.3569,0.3651,0.3667,0.3722,0.3719,0.3742,0.3768,0.3767,0.3831,0.3826,0.3831,0.3847,0.3869,0.387,0.3871,0.3906,0.3911,0.3914,0,0,0,0,0,0,0.33,0.3408,0.3431,0.3508,0.3573,0.3663,0.3698,0.3717,0.3758,0.3761,0.378,0.3788,0.3822,0.3823,0.3817,0.3863,0.3846,0.3848,0.3871,0.3875,0.3878,0.3888,0.382,0,0,0,0,0,0.3297,0.3357,0.3448,0.351,0.3544,0.3612,0.3648,0.3686,0.3738,0.3756,0.3784,0.3806,0.383,0.3843,0.3869,0.3893,0.393,0.3902,0.3905,0.3908,0.3919,0.3965,0.3975,0.3875,0.3875,0.3875,0,0,0.3296,0.3363,0.3398,0.3501,0.3559,0.3614,0.3634,0.3702,0.3737,0.3752,0.3802,0.3822,0.3839,0.388,0.3892,0.3882,0.3966,0.3909,0.3912,0.3921,0.3967,0.3977,0.3986,0.3875,0.3875,0.3875,0,0,0.3322,0.3384,0.3436,0.3489,0.3578,0.3621,0.3633,0.3719,0.3748,0.3794,0.3815,0.3848,0.3877,0.3912,0.3923,0.3953,0.3984,0.3948,0.3975,0.402,0.403,0.4038,0.4147,0.4165,0.3947,0.3947,0.3947,0,0.3313,0.3397,0.346,0.3519,0.3563,0.3617,0.3668,0.3709,0.3789,0.3815,0.3809,0.3881,0.3895,0.3949,0.3965,0.3964,0.4013,0.3961,0.4027,0.4035,0.4043,0.4153,0.4172,0.3949,0.3949,0.3949,0.3949,0,0.3376,0.3435,0.3472,0.356,0.361,0.3669,0.3732,0.3773,0.3796,0.3836,0.3894,0.3928,0.3969,0.3975,0.3981,0.4043,0.4072,0.403,0.4021,0.4056,0.417,0.4189,0.3952,0.3951,0.3951,0.395,0,0,0.3382,0.3491,0.3503,0.3542,0.3635,0.3686,0.374,0.3813,0.3849,0.3902,0.395,0.3999,0.4019,0.4033,0.405,0.4089,0.4203,0.4085,0.4087,0.4204,0.4361,0.4421,0.4448,0.4169,0.4171,0.4173,0.4437,0,0.3411,0.3504,0.3552,0.3628,0.3683,0.3737,0.3784,0.3849,0.3893,0.3951,0.399,0.4042,0.4038,0.4064,0.4105,0.4162,0.4247,0.4139,0.4301,0.4307,0.4362,0.4468,0.4352,0.4579,0.4456,0.4459,0.4462,0,0.3459,0.3514,0.3589,0.367,0.3698,0.3737,0.3822,0.3872,0.3955,0.3992,0.4049,0.4082,0.4163,0.4137,0.429,0.4221,0.4309,0.4359,0.4369,0.4421,0.4401,0.4513,0.4619,0.4436,0.4491,0.4489,0.4487,0,0.3447,0.354,0.3593,0.3626,0.3723,0.3753,0.3796,0.3883,0.393,0.4022,0.4068,0.4153,0.4212,0.4297,0.4413,0.4356,0.4592,0.4518,0.4682,0.4689,0.4621,0.4618,0.4572,0.4661,0.4661,0.466,0.4659,0,0.3473,0.352,0.3585,0.3623,0.367,0.3744,0.3799,0.386,0.3944,0.4012,0.4085,0.4169,0.4249,0.4383,0.4464,0.4661,0.4647,0.4737,0.4764,0.4637,0.4633,0.4493,0.4392,0.467,0.4668,0.4666,0.4664,0,0.3471,0.3521,0.358,0.3655,0.3673,0.3707,0.3782,0.383,0.3922,0.4011,0.4046,0.4204,0.4397,0.4524,0.4703,0.4756,0.4799,0.4993,0.4881,0.489,0.4827,0.4734,0.4678,0.4554,0.5205,0.5208,0.5211,0,0.348,0.351,0.3576,0.3602,0.3633,0.3682,0.372,0.3805,0.3859,0.4044,0.4093,0.4314,0.4459,0.478,0.494,0.5157,0.4949,0.5167,0.5023,0.4855,0.477,0.4577,0.4459,0.4976,0.4977,0.4977,0.4977,0,0.3481,0.3499,0.3545,0.3583,0.3618,0.3651,0.371,0.374,0.3861,0.3952,0.4119,0.4249,0.4611,0.4777,0.5083,0.5192,0.4905,0.5185,0.5002,0.4606,0.4397,0.4279,0.4815,0.4981,0.498,0.498,0.498,0.498,0.3467,0.3479,0.3524,0.355,0.3587,0.3606,0.3592,0.3676,0.3742,0.3842,0.4054,0.4212,0.4513,0.4932,0.5018,0.5074,0.5015,0.4951,0.4874,0.4712,0.4499,0.5097,0.528,0.5281,0.5282,0.5283,0.5284,0,0.3424,0.3447,0.3486,0.3502,0.3496,0.3537,0.357,0.3536,0.3565,0.3737,0.3862,0.4157,0.4363,0.4591,0.4829,0.474,0.454,0.4608,0.4237,0.415,0.469,0.4581,0.4626,0.4626,0.4626,0.4626,0.4626,0.4627,0.3408,0.3419,0.3427,0.3392,0.3395,0.3336,0.3322,0.3303,0.3375,0.3459,0.3604,0.3802,0.4125,0.4397,0.4401,0.4332,0.3966,0.3901,0.3817,0.4112,0.4132,0.4152,0.4021,0.3948,0.3947,0.314,0.3133,0.3128]},{"header":{"parameterUnit":"m.s-1","parameterCategory":2,"la1":30.2991,"la2":30.254,"lo1":-89.0895,"lo2":-89.0444,"dy":0.0017,"dx":0.0017,"nx":28,"ny":28,"refTime":"2024-06-10T03:00:00:Z","depth":"0","parameterNumber":3,"parameterNumberName":"V-component_of_CURRENTS"},"data":[0,0,0,0,0,0,0,0,0,0,0,0,0,0,0,0,0,0,0,0,0,0,0,0,0,0,0,0,0,0,0,0,0,0,0,0,0,0,0,0,0,0,0,0,0,0,0,0,0,0,0,0,0,0,0,0,0,0,-0.1005,-0.1007,0,-0.1208,-0.121,-0.1213,-0.1307,-0.1307,-0.1307,-0.1307,-0.1486,-0.1491,-0.1495,0,0,0,0,0,0,0,0,0,0,0,0,0,-0.0689,-0.0695,-0.1005,-0.1007,-0.101,-0.1208,-0.121,-0.1213,-0.1307,-0.1307,-0.1307,-0.1307,-0.1484,-0.149,-0.1496,0,0,0,0,0,0,0,0,0,0,0,0,0,-0.0852,-0.0696,-0.1004,-0.1081,-0.109,-0.1207,-0.121,-0.1214,-0.1307,-0.1307,-0.1307,-0.1307,-0.1482,-0.1489,-0.1497,-0.1545,0,0,-0.1519,-0.1522,0,0,0,0,0,0,0,0,-0.0843,-0.0864,-0.1067,-0.1076,-0.1086,-0.1233,-0.1165,-0.1324,-0.1307,-0.1224,-0.1307,-0.1307,-0.1399,-0.1413,-0.1452,-0.1553,-0.1561,-0.152,-0.1524,-0.1527,-0.1529,0,0,0,0,0,0,0,-0.0831,-0.0855,-0.1085,-0.107,-0.1082,-0.1102,-0.1125,-0.1195,-0.1309,-0.1232,-0.1239,-0.1263,-0.1404,-0.1444,-0.1456,-0.1563,-0.1519,-0.1526,-0.153,-0.1533,-0.1736,-0.1737,0,0,0,0,0,0,-0.0809,-0.0845,-0.1078,-0.1091,-0.0962,-0.1108,-0.1134,-0.1185,-0.1309,-0.1329,-0.1262,-0.1266,-0.1432,-0.1448,-0.1463,-0.1505,-0.1527,-0.1534,-0.1538,-0.1735,-0.1736,-0.1737,0,0,0,0,0,0,-0.0802,-0.0829,-0.107,-0.0971,-0.1003,-0.1114,-0.1171,-0.1189,-0.1237,-0.1333,-0.1352,-0.1291,-0.1433,-0.1453,-0.1534,-0.1513,-0.1537,-0.1544,-0.1733,-0.1735,-0.1736,-0.1603,0,0,0,0,0,0,-0.0793,-0.0826,-0.0858,-0.097,-0.1008,-0.1145,-0.1172,-0.1194,-0.1252,-0.1259,-0.1364,-0.138,-0.1434,-0.1523,-0.1541,-0.1524,-0.1549,-0.1732,-0.1734,-0.1736,-0.1606,-0.16,-0.1594,0,0,0,0,0,-0.0781,-0.0828,-0.0859,-0.0887,-0.1049,-0.1146,-0.1167,-0.1243,-0.1253,-0.1283,-0.1349,-0.1378,-0.1548,-0.153,-0.1551,-0.1535,-0.1731,-0.1734,-0.1736,-0.1609,-0.1601,-0.1594,0,0,0,0,0,0,-0.0711,-0.0845,-0.0881,-0.0968,-0.105,-0.1162,-0.1194,-0.1242,-0.132,-0.1316,-0.1399,-0.1421,-0.1486,-0.1542,-0.152,-0.1605,-0.1641,-0.1648,-0.1537,-0.1531,-0.1525,-0.1449,-0.1556,0,0,0,0,0,-0.0708,-0.0775,-0.0895,-0.0958,-0.0994,-0.109,-0.1137,-0.1187,-0.1269,-0.1303,-0.1373,-0.1446,-0.1513,-0.1545,-0.1622,-0.1668,-0.1656,-0.1674,-0.1668,-0.1662,-0.1619,-0.1609,-0.1595,-0.1744,-0.1744,-0.1744,0,0,-0.0697,-0.0777,-0.0816,-0.0946,-0.1007,-0.1047,-0.1118,-0.1183,-0.1205,-0.1308,-0.1355,-0.1436,-0.1528,-0.1579,-0.1611,-0.1619,-0.1611,-0.1665,-0.1658,-0.1618,-0.1609,-0.1593,-0.158,-0.1746,-0.1746,-0.1745,0,0,-0.0681,-0.0774,-0.081,-0.087,-0.0962,-0.102,-0.1034,-0.1143,-0.1181,-0.1249,-0.1318,-0.1377,-0.1496,-0.1537,-0.1576,-0.1586,-0.159,-0.1627,-0.1518,-0.1509,-0.1494,-0.1481,-0.1414,-0.1396,-0.161,-0.161,-0.161,0,-0.0654,-0.0724,-0.0831,-0.0863,-0.0891,-0.0996,-0.1008,-0.1069,-0.1186,-0.1191,-0.1245,-0.137,-0.1461,-0.1481,-0.1493,-0.1562,-0.1543,-0.1528,-0.1492,-0.148,-0.1469,-0.1403,-0.1385,-0.1604,-0.1604,-0.1605,-0.1606,0,-0.066,-0.0702,-0.072,-0.079,-0.0836,-0.0869,-0.0951,-0.0986,-0.1036,-0.1085,-0.1132,-0.1251,-0.1304,-0.1361,-0.1434,-0.1406,-0.141,-0.1488,-0.1488,-0.1444,-0.138,-0.1363,-0.1595,-0.1597,-0.1599,-0.1601,0,0,-0.0618,-0.0706,-0.0706,-0.0701,-0.0794,-0.0821,-0.084,-0.088,-0.0849,-0.0961,-0.0921,-0.1063,-0.1104,-0.1151,-0.1245,-0.1251,-0.1172,-0.1324,-0.1327,-0.1213,-0.1094,-0.109,-0.1072,-0.1242,-0.1239,-0.1237,-0.1066,0,-0.0577,-0.0594,-0.0657,-0.0637,-0.0642,-0.071,-0.0707,-0.0745,-0.0787,-0.0778,-0.0869,-0.0891,-0.103,-0.1041,-0.1068,-0.1162,-0.1128,-0.1207,-0.1191,-0.1188,-0.1155,-0.1053,-0.0995,-0.0839,-0.105,-0.1047,-0.1045,0,-0.0548,-0.0561,-0.054,-0.0531,-0.0534,-0.0528,-0.05,-0.0515,-0.053,-0.0555,-0.0577,-0.0654,-0.068,-0.0811,-0.0861,-0.0905,-0.0965,-0.1032,-0.1029,-0.1052,-0.1154,-0.093,-0.0801,-0.1052,-0.102,-0.1022,-0.1024,0,-0.0445,-0.0463,-0.043,-0.0438,-0.0457,-0.0424,-0.0421,-0.043,-0.0402,-0.039,-0.0349,-0.0415,-0.0417,-0.0518,-0.0673,-0.0752,-0.0705,-0.0838,-0.0864,-0.0863,-0.0821,-0.0821,-0.0892,-0.0819,-0.0819,-0.082,-0.082,0,-0.0376,-0.0338,-0.0368,-0.0348,-0.0267,-0.031,-0.0216,-0.0222,-0.0187,-0.0104,-0.021,-0.0144,-0.0347,-0.0374,-0.0539,-0.0615,-0.0587,-0.0783,-0.0809,-0.0775,-0.0773,-0.1002,-0.1141,-0.0813,-0.0815,-0.0816,-0.0817,0,-0.0265,-0.0297,-0.0245,-0.0237,-0.0221,-0.0155,-0.0094,-0.0022,-0.0003,0.0113,0.0134,0.01,0.0076,-0.0101,-0.0231,-0.0409,-0.0613,-0.0548,-0.0463,-0.0484,-0.0797,-0.0929,-0.0947,-0.1046,-0.0535,-0.0534,-0.0533,0,-0.0208,-0.0179,-0.015,-0.0106,-0.0094,-0.0014,0.0048,0.007,0.0151,0.0269,0.035,0.0375,0.0407,0.0247,-0.0021,-0.0209,-0.0488,-0.0334,-0.0506,-0.0745,-0.0913,-0.1025,-0.1118,-0.0375,-0.0373,-0.0371,-0.0369,0,-0.0088,-0.0086,-0.0049,0.0026,0.0098,0.0182,0.0277,0.0368,0.0432,0.0555,0.0723,0.0774,0.0647,0.0499,0.0211,0.0011,-0.0491,-0.0304,-0.0576,-0.0784,-0.088,-0.101,-0.0536,-0.0353,-0.0354,-0.0356,-0.0356,-0.0357,0.0013,0.006,0.0094,0.0176,0.0257,0.0378,0.0482,0.0604,0.0778,0.0998,0.1021,0.119,0.0912,0.0541,0.0229,-0.0316,-0.036,-0.0534,-0.0658,-0.0739,-0.0891,-0.0353,-0.0219,-0.022,-0.0221,-0.0221,-0.0222,0,0.0128,0.0163,0.0241,0.0338,0.0452,0.0462,0.0634,0.0763,0.1001,0.1241,0.1419,0.1464,0.1062,0.0583,-0.0104,-0.0577,-0.0801,-0.087,-0.1042,-0.1114,-0.0633,-0.0695,-0.0628,-0.0628,-0.0628,-0.0628,-0.0628,-0.0627,0.0197,0.0279,0.0302,0.0489,0.0569,0.074,0.0849,0.1052,0.1252,0.1604,0.1807,0.1909,0.1558,0.0227,-0.0786,-0.1044,-0.1416,-0.1433,-0.1667,-0.1402,-0.1383,-0.1365,-0.146,-0.1555,-0.1556,-0.2093,-0.2098,-0.2102]}],[{"header":{"parameterUnit":"m.s-1","parameterCategory":2,"la1":30.2991,"la2":30.254,"lo1":-89.0895,"lo2":-89.0444,"dy":0.0017,"dx":0.0017,"nx":28,"ny":28,"refTime":"2024-06-10T03:00:00:Z","depth":"2","parameterNumber":2,"parameterNumberName":"U-component_of_CURRENTS"},"data":[0,0,0,0,0,0,0,0,0,0,0,0,0,0,0,0,0,0,0,0,0,0,0,0,0,0,0,0,0,0,0,0,0,0,0,0,0,0,0,0,0,0,0,0,0,0,0,0,0,0,0,0,0,0,0,0,0,0,0.2288,0.2288,0,0.2256,0.2255,0.2254,0.2229,0.2229,0.223,0.223,0.2198,0.2197,0.2196,0,0,0,0,0,0,0,0,0,0,0,0,0,0.2327,0.2326,0.2288,0.2288,0.2288,0.2256,0.2255,0.2254,0.2229,0.2229,0.223,0.223,0.2199,0.2197,0.2196,0,0,0,0,0,0,0,0,0,0,0,0,0,0.23,0.2325,0.2288,0.2274,0.2273,0.2256,0.2255,0.2254,0.2229,0.2229,0.223,0.223,0.2199,0.2198,0.2196,0.2186,0,0,0.2192,0.2192,0,0,0,0,0,0,0,0,0.2302,0.2299,0.2276,0.2275,0.2274,0.225,0.2257,0.2232,0.2229,0.2242,0.223,0.223,0.2218,0.2215,0.2204,0.2184,0.2183,0.2192,0.2191,0.2191,0.219,0,0,0,0,0,0,0,0.2304,0.23,0.2272,0.2276,0.2275,0.2269,0.2265,0.2252,0.2227,0.2241,0.224,0.2242,0.2216,0.2205,0.2203,0.2182,0.2192,0.2191,0.219,0.2189,0.2202,0.2203,0,0,0,0,0,0,0.2314,0.2302,0.2273,0.2271,0.2292,0.2269,0.2264,0.2255,0.2227,0.2224,0.2242,0.2241,0.2207,0.2204,0.2202,0.2216,0.2191,0.2189,0.2189,0.22,0.2202,0.2203,0,0,0,0,0,0,0.2315,0.2312,0.2274,0.2289,0.2284,0.2268,0.2258,0.2254,0.2256,0.2228,0.2225,0.225,0.2207,0.2204,0.2197,0.2214,0.2189,0.2187,0.2199,0.2201,0.2202,0.2227,0,0,0,0,0,0,0.2316,0.2312,0.2317,0.2289,0.2284,0.227,0.2258,0.2253,0.2257,0.2256,0.2234,0.223,0.2207,0.2199,0.2195,0.2211,0.2186,0.2198,0.22,0.2202,0.2225,0.2229,0.2233,0,0,0,0,0,0.2317,0.2315,0.2317,0.2314,0.2288,0.2271,0.2267,0.2254,0.2258,0.2257,0.2243,0.2231,0.2211,0.2198,0.2194,0.221,0.2197,0.2199,0.2202,0.2223,0.2228,0.2233,0,0,0,0,0,0,0.2336,0.2312,0.2313,0.2305,0.2296,0.2268,0.227,0.2266,0.2254,0.2256,0.2233,0.2228,0.2227,0.2221,0.2208,0.2223,0.2207,0.2209,0.2225,0.223,0.2234,0.2247,0.2185,0,0,0,0,0,0.2344,0.2335,0.2317,0.2315,0.2312,0.2298,0.2295,0.2284,0.2268,0.2263,0.2246,0.2239,0.2233,0.2234,0.2218,0.2225,0.228,0.2239,0.2243,0.2246,0.2257,0.2332,0.2344,0.2211,0.2211,0.2211,0,0,0.2356,0.234,0.2339,0.232,0.2313,0.2306,0.2295,0.2289,0.2288,0.2262,0.2256,0.2244,0.2236,0.2235,0.2238,0.2235,0.2327,0.225,0.2252,0.2261,0.2336,0.2349,0.236,0.2213,0.2213,0.2213,0,0,0.2367,0.2358,0.2356,0.2346,0.2336,0.2322,0.2327,0.2304,0.23,0.2294,0.2278,0.2281,0.2267,0.2264,0.2264,0.2289,0.2338,0.2291,0.233,0.2402,0.2413,0.2424,0.2571,0.2594,0.2303,0.2303,0.2303,0,0.239,0.2371,0.2356,0.2349,0.2346,0.2334,0.2334,0.2326,0.2303,0.2312,0.2298,0.2304,0.2284,0.2307,0.2308,0.2298,0.2375,0.2306,0.2408,0.2419,0.243,0.2577,0.2602,0.2304,0.2304,0.2304,0.2304,0,0.2391,0.2383,0.2381,0.2368,0.2365,0.2358,0.2347,0.235,0.2349,0.2346,0.2364,0.2343,0.2365,0.235,0.2331,0.2395,0.2442,0.2397,0.2395,0.2445,0.2597,0.2624,0.2307,0.2306,0.2306,0.2305,0,0,0.2418,0.239,0.2391,0.239,0.2371,0.2369,0.2377,0.2383,0.2421,0.2398,0.2452,0.2419,0.2434,0.2437,0.2424,0.2464,0.2607,0.2466,0.247,0.2615,0.2843,0.2838,0.2867,0.2582,0.2585,0.2588,0.2942,0,0.2427,0.2419,0.24,0.2404,0.2399,0.2396,0.2412,0.2423,0.2442,0.2489,0.2486,0.2534,0.2464,0.2506,0.2526,0.2585,0.2668,0.252,0.2771,0.278,0.2768,0.2892,0.2553,0.2834,0.2968,0.2972,0.2975,0,0.2424,0.242,0.2426,0.2427,0.243,0.2447,0.2494,0.2509,0.2567,0.2594,0.2637,0.2655,0.2727,0.2657,0.2808,0.2726,0.2797,0.2831,0.2845,0.2843,0.282,0.2793,0.2877,0.3019,0.3016,0.3012,0.3009,0,0.2436,0.2431,0.244,0.2438,0.2447,0.2479,0.2506,0.2557,0.2604,0.2705,0.2783,0.2831,0.2935,0.2975,0.3051,0.296,0.3238,0.3128,0.3205,0.321,0.2971,0.2947,0.3257,0.3257,0.3256,0.3255,0.3254,0,0.2429,0.2433,0.2462,0.2467,0.2513,0.2523,0.2604,0.2639,0.2738,0.2831,0.2869,0.2978,0.3018,0.316,0.3163,0.331,0.3358,0.3263,0.3298,0.2978,0.2952,0.3118,0.3097,0.3268,0.3265,0.3262,0.326,0,0.2415,0.2429,0.2443,0.2487,0.2515,0.2559,0.2664,0.2732,0.2839,0.298,0.3039,0.3177,0.3377,0.3441,0.3586,0.3518,0.3609,0.3648,0.3314,0.33,0.3512,0.3488,0.3775,0.3778,0.378,0.3782,0.3784,0,0.2393,0.2404,0.2466,0.2502,0.253,0.2611,0.2677,0.2774,0.2861,0.3091,0.3171,0.3427,0.3531,0.3777,0.3728,0.3815,0.3825,0.3571,0.3287,0.3559,0.3565,0.3537,0.3511,0.3024,0.3019,0.3015,0.3012,0,0.2353,0.2392,0.2414,0.2493,0.257,0.2636,0.2751,0.282,0.2967,0.3107,0.3306,0.3413,0.3644,0.3551,0.3678,0.3647,0.3505,0.3498,0.3898,0.2927,0.2873,0.2871,0.2866,0.2977,0.2981,0.2983,0.2985,0.2987,0.2331,0.2341,0.2393,0.2451,0.2552,0.2624,0.264,0.2773,0.2888,0.2979,0.3199,0.3231,0.3296,0.327,0.3249,0.3241,0.3444,0.3236,0.3238,0.3246,0.3078,0.3027,0.3137,0.3141,0.3145,0.3148,0.3151,0,0.2254,0.2288,0.2345,0.2394,0.2444,0.255,0.265,0.2625,0.2699,0.279,0.2869,0.2637,0.2633,0.2757,0.2661,0.27,0.2561,0.2626,0.2374,0.2414,0.2448,0.2226,0.2067,0.2064,0.206,0.2057,0,0,0.2215,0.2207,0.2218,0.2242,0.232,0.2329,0.2357,0.2357,0.2376,0.2266,0.2223,0.2352,0.2576,0.221,0.2231,0.2133,0.2231,0.2058,0.2927,0.2664,0.2692,0.2814,0.2522,0,0,0,0,0]},{"header":{"parameterUnit":"m.s-1","parameterCategory":2,"la1":30.2991,"la2":30.254,"lo1":-89.0895,"lo2":-89.0444,"dy":0.0017,"dx":0.0017,"nx":28,"ny":28,"refTime":"2024-06-10T03:00:00:Z","depth":"2","parameterNumber":3,"parameterNumberName":"V-component_of_CURRENTS"},"data":[0,0,0,0,0,0,0,0,0,0,0,0,0,0,0,0,0,0,0,0,0,0,0,0,0,0,0,0,0,0,0,0,0,0,0,0,0,0,0,0,0,0,0,0,0,0,0,0,0,0,0,0,0,0,0,0,0,0,-0.0182,-0.0183,0,-0.0266,-0.0267,-0.0268,-0.0352,-0.0353,-0.0354,-0.0355,-0.0509,-0.0512,-0.0515,0,0,0,0,0,0,0,0,0,0,0,0,0,-0.0124,-0.0124,-0.0182,-0.0183,-0.0184,-0.0265,-0.0267,-0.0268,-0.0352,-0.0353,-0.0354,-0.0355,-0.0508,-0.0511,-0.0515,0,0,0,0,0,0,0,0,0,0,0,0,0,-0.0173,-0.0124,-0.0182,-0.0235,-0.0241,-0.0265,-0.0267,-0.0268,-0.0351,-0.0353,-0.0355,-0.0356,-0.0507,-0.0511,-0.0516,-0.0513,0,0,-0.053,-0.0532,0,0,0,0,0,0,0,0,-0.017,-0.0175,-0.0227,-0.0232,-0.0238,-0.0299,-0.0302,-0.0353,-0.0351,-0.031,-0.0355,-0.0357,-0.0443,-0.0453,-0.0466,-0.052,-0.0527,-0.053,-0.0533,-0.0535,-0.0537,0,0,0,0,0,0,0,-0.0166,-0.0172,-0.0216,-0.0227,-0.0234,-0.0264,-0.0273,-0.0312,-0.0369,-0.0314,-0.032,-0.0327,-0.0447,-0.0461,-0.047,-0.0529,-0.053,-0.0534,-0.0537,-0.0539,-0.064,-0.064,0,0,0,0,0,0,-0.0151,-0.0168,-0.0214,-0.0219,-0.0206,-0.0264,-0.0273,-0.0279,-0.0367,-0.0381,-0.0326,-0.0331,-0.0452,-0.0465,-0.0476,-0.0536,-0.0535,-0.054,-0.0542,-0.0641,-0.064,-0.064,0,0,0,0,0,0,-0.0149,-0.0154,-0.021,-0.0195,-0.0204,-0.0263,-0.0268,-0.0279,-0.032,-0.0375,-0.0392,-0.0358,-0.0454,-0.0469,-0.052,-0.0541,-0.0542,-0.0546,-0.0641,-0.0641,-0.064,-0.0619,0,0,0,0,0,0,-0.0147,-0.0153,-0.0166,-0.0194,-0.0204,-0.0224,-0.0267,-0.028,-0.032,-0.0329,-0.0408,-0.0422,-0.0456,-0.0512,-0.0524,-0.0547,-0.055,-0.0641,-0.0641,-0.064,-0.062,-0.0618,-0.0617,0,0,0,0,0,-0.0145,-0.0143,-0.0166,-0.0173,-0.0216,-0.0223,-0.0231,-0.0279,-0.032,-0.0326,-0.0383,-0.0421,-0.052,-0.0516,-0.053,-0.0555,-0.0641,-0.0641,-0.064,-0.0621,-0.0619,-0.0617,0,0,0,0,0,0,-0.0136,-0.0152,-0.0178,-0.0187,-0.0206,-0.0237,-0.0255,-0.0288,-0.0338,-0.0362,-0.042,-0.0437,-0.0487,-0.0517,-0.0511,-0.058,-0.0587,-0.0589,-0.0567,-0.0566,-0.0564,-0.0542,-0.0553,0,0,0,0,0,-0.0136,-0.0137,-0.016,-0.0172,-0.0181,-0.0225,-0.0243,-0.0272,-0.0312,-0.0337,-0.0395,-0.0452,-0.049,-0.0526,-0.056,-0.0602,-0.0612,-0.0625,-0.0624,-0.0622,-0.0612,-0.0632,-0.0631,-0.064,-0.064,-0.064,0,0,-0.0144,-0.0149,-0.0157,-0.017,-0.0197,-0.0202,-0.0241,-0.0265,-0.0285,-0.0346,-0.0406,-0.0448,-0.0497,-0.0538,-0.0565,-0.0574,-0.0626,-0.0622,-0.0621,-0.0611,-0.0632,-0.0631,-0.063,-0.0639,-0.0639,-0.0639,0,0,-0.0133,-0.0158,-0.0151,-0.0158,-0.0183,-0.0203,-0.0212,-0.0254,-0.0291,-0.0335,-0.0384,-0.0431,-0.0507,-0.0536,-0.0562,-0.057,-0.061,-0.0597,-0.0585,-0.0605,-0.0604,-0.0604,-0.0617,-0.0618,-0.0605,-0.0605,-0.0605,0,-0.0147,-0.0138,-0.0153,-0.0142,-0.0151,-0.0202,-0.0199,-0.0234,-0.0292,-0.0317,-0.0353,-0.0451,-0.0498,-0.0537,-0.0545,-0.0568,-0.0585,-0.0591,-0.0602,-0.0602,-0.0602,-0.0616,-0.0617,-0.0604,-0.0604,-0.0604,-0.0604,0,-0.0119,-0.0125,-0.0121,-0.0125,-0.0131,-0.0138,-0.0172,-0.0204,-0.0262,-0.03,-0.0362,-0.0422,-0.0478,-0.0506,-0.0535,-0.0563,-0.0577,-0.0591,-0.0606,-0.06,-0.0615,-0.0616,-0.0602,-0.0602,-0.0603,-0.0603,0,0,-0.0115,-0.0105,-0.0109,-0.0104,-0.0123,-0.012,-0.0149,-0.0178,-0.0197,-0.0278,-0.0305,-0.0388,-0.0434,-0.0463,-0.0512,-0.0539,-0.056,-0.0571,-0.0573,-0.0582,-0.0606,-0.0578,-0.0577,-0.0586,-0.0586,-0.0586,-0.0616,0,-0.0099,-0.0071,-0.0071,-0.0062,-0.0052,-0.0086,-0.0095,-0.013,-0.0183,-0.022,-0.03,-0.0345,-0.0416,-0.0445,-0.0486,-0.0534,-0.0564,-0.055,-0.0612,-0.0613,-0.0587,-0.0577,-0.0553,-0.0575,-0.0618,-0.0619,-0.0619,0,-0.0066,-0.0051,-0.0034,-0.0017,-0.0016,-0.0021,-0.0037,-0.0052,-0.0109,-0.0145,-0.0215,-0.028,-0.0346,-0.0396,-0.0492,-0.0485,-0.0544,-0.0583,-0.0586,-0.0564,-0.0588,-0.0588,-0.0576,-0.0622,-0.0622,-0.0621,-0.0621,0,-0.0035,-0.0021,-0.0007,-0.0004,0.0003,-0.0001,-0.0008,-0.0043,-0.0039,-0.0105,-0.0097,-0.0214,-0.0242,-0.0347,-0.045,-0.0478,-0.0529,-0.0577,-0.0606,-0.0605,-0.0596,-0.0593,-0.0632,-0.0632,-0.0632,-0.0632,-0.0632,0,0.0001,0.0014,0.0003,0.0014,0.004,0.0029,0.0045,0.0028,0.0017,0.0056,-0.0062,-0.0039,-0.0229,-0.029,-0.0412,-0.05,-0.0507,-0.0592,-0.0607,-0.0587,-0.0583,-0.0634,-0.0633,-0.0633,-0.0633,-0.0632,-0.0632,0,0.0044,0.0031,0.0057,0.0056,0.0058,0.0074,0.0099,0.0129,0.0109,0.0163,0.0152,0.009,0.0027,-0.0142,-0.0285,-0.0418,-0.0524,-0.0552,-0.0511,-0.052,-0.0605,-0.0603,-0.0609,-0.0609,-0.0608,-0.0607,-0.0607,0,0.0077,0.0088,0.0092,0.0115,0.0112,0.0132,0.0171,0.0167,0.0217,0.0269,0.0324,0.0271,0.0299,0.0094,-0.0171,-0.0377,-0.0429,-0.0508,-0.0559,-0.0586,-0.0601,-0.0601,-0.06,-0.0547,-0.0546,-0.0545,-0.0545,0,0.0149,0.0131,0.0154,0.0189,0.0223,0.0276,0.0325,0.039,0.0428,0.0514,0.0632,0.0661,0.0463,0.0259,-0.0052,-0.0205,-0.0485,-0.0497,-0.053,-0.0546,-0.0528,-0.0542,-0.0544,-0.0538,-0.0539,-0.0539,-0.054,-0.054,0.0202,0.023,0.0248,0.0288,0.0339,0.043,0.0509,0.061,0.0749,0.0913,0.0895,0.096,0.0643,0.0285,-0.0009,-0.0368,-0.0372,-0.0516,-0.0519,-0.0523,-0.05,-0.048,-0.0477,-0.0477,-0.0478,-0.0478,-0.0478,0,0.0283,0.0303,0.0354,0.0417,0.051,0.0496,0.0637,0.0762,0.0985,0.1098,0.1225,0.0985,0.0761,0.0399,-0.0125,-0.0419,-0.0466,-0.0504,-0.0521,-0.0525,-0.0529,-0.0508,-0.0487,-0.0488,-0.0488,-0.0489,0,0,0.0328,0.0395,0.0419,0.0568,0.0617,0.0761,0.0859,0.1054,0.1167,0.133,0.1338,0.1334,0.0862,0.0489,0.0081,-0.0212,-0.0296,-0.0258,-0.022,-0.0195,-0.0195,-0.0506,-0.0473,0,0,0,0,0]}],[{"header":{"parameterUnit":"m.s-1","parameterCategory":2,"la1":30.2991,"la2":30.254,"lo1":-89.0895,"lo2":-89.0444,"dy":0.0017,"dx":0.0017,"nx":28,"ny":28,"refTime":"2024-06-10T03:00:00:Z","depth":"4","parameterNumber":2,"parameterNumberName":"U-component_of_CURRENTS"},"data":[0,0,0,0,0,0,0,0,0,0,0,0,0,0,0,0,0,0,0,0,0,0,0,0,0,0,0,0,0,0,0,0,0,0,0,0,0,0,0,0,0,0,0,0,0,0,0,0,0,0,0,0,0,0,0,0,0,0,0.0522,0.0523,0,0.0602,0.0603,0.0604,0.0644,0.0644,0.0644,0.0644,0.0718,0.072,0.0722,0,0,0,0,0,0,0,0,0,0,0,0,0,0.0524,0.0523,0.0522,0.0523,0.0524,0.0601,0.0603,0.0604,0.0644,0.0644,0.0644,0.0644,0.0718,0.072,0.0723,0,0,0,0,0,0,0,0,0,0,0,0,0,0.0555,0.0522,0.0522,0.0553,0.0556,0.0601,0.0603,0.0604,0.0644,0.0644,0.0644,0.0644,0.0717,0.072,0.0723,0.0743,0,0,0.0732,0.0734,0,0,0,0,0,0,0,0,0.0553,0.0555,0.0547,0.0551,0.0555,0.0612,0.0631,0.065,0.0644,0.0611,0.0644,0.0644,0.0682,0.0688,0.0704,0.0746,0.075,0.0733,0.0734,0.0736,0.0737,0,0,0,0,0,0,0,0.0551,0.0553,0.0554,0.0548,0.0553,0.0603,0.0607,0.0635,0.0646,0.0614,0.0617,0.0625,0.0684,0.0701,0.0706,0.0751,0.0732,0.0735,0.0737,0.0738,0.0874,0.0875,0,0,0,0,0,0,0.0533,0.055,0.0552,0.0557,0.0553,0.0603,0.0607,0.0594,0.0646,0.0654,0.0625,0.0626,0.0696,0.0702,0.0709,0.0819,0.0736,0.0738,0.074,0.0872,0.0874,0.0876,0,0,0,0,0,0,0.0533,0.0532,0.0549,0.0556,0.0562,0.0602,0.0588,0.0596,0.0633,0.0654,0.0662,0.0656,0.0696,0.0705,0.0757,0.0819,0.074,0.0743,0.087,0.0872,0.0875,0.0986,0,0,0,0,0,0,0.0532,0.0531,0.0526,0.0554,0.056,0.0587,0.0589,0.0597,0.0636,0.064,0.0684,0.0689,0.0697,0.0753,0.076,0.0822,0.0745,0.0867,0.0871,0.0874,0.098,0.0992,0.1002,0,0,0,0,0,0.0531,0.052,0.0525,0.0526,0.0548,0.0588,0.0597,0.0627,0.0638,0.066,0.0693,0.0689,0.0779,0.0757,0.0765,0.0829,0.0866,0.087,0.0874,0.0975,0.0989,0.1002,0,0,0,0,0,0,0.0515,0.0524,0.053,0.052,0.0558,0.0595,0.0616,0.064,0.0685,0.0693,0.0713,0.0721,0.0797,0.0787,0.0762,0.0874,0.0822,0.0828,0.0896,0.0909,0.092,0.0942,0.0748,0,0,0,0,0,0.0508,0.0503,0.0531,0.0528,0.0546,0.0588,0.0611,0.0636,0.0673,0.0694,0.0733,0.0769,0.0817,0.0841,0.0876,0.0932,0.0929,0.0976,0.0987,0.0997,0.1018,0.1064,0.1082,0.0889,0.0889,0.0889,0,0,0.0498,0.0506,0.0501,0.0526,0.0556,0.06,0.0603,0.0644,0.0697,0.0695,0.0782,0.0816,0.0841,0.0916,0.0947,0.0917,0.1047,0.1002,0.101,0.1027,0.1071,0.109,0.1106,0.0892,0.0891,0.0891,0,0,0.0494,0.0488,0.0496,0.0532,0.0582,0.0615,0.0632,0.0692,0.0735,0.0816,0.0835,0.0909,0.097,0.1016,0.104,0.113,0.1109,0.1132,0.1208,0.1253,0.127,0.1284,0.1292,0.1306,0.1132,0.1133,0.1133,0,0.0486,0.05,0.051,0.0546,0.0585,0.0626,0.0673,0.0724,0.0801,0.0848,0.0856,0.0988,0.1029,0.1117,0.117,0.1163,0.1161,0.1158,0.127,0.1284,0.1297,0.1301,0.1316,0.1138,0.1138,0.1137,0.1137,0,0.0499,0.0527,0.0542,0.0598,0.0641,0.0687,0.0755,0.0815,0.0879,0.094,0.1053,0.1111,0.1195,0.122,0.1241,0.1353,0.1311,0.1284,0.1239,0.1324,0.1322,0.1335,0.1147,0.1145,0.1143,0.1141,0,0,0.0449,0.0532,0.0546,0.059,0.0677,0.0715,0.0804,0.0902,0.0965,0.1064,0.117,0.1288,0.1332,0.1364,0.1387,0.1439,0.1557,0.1418,0.1417,0.1431,0.163,0.1546,0.1551,0.1544,0.1548,0.155,0.1587,0,0.047,0.0538,0.0585,0.0677,0.0721,0.0794,0.0879,0.0972,0.1052,0.1165,0.1256,0.1378,0.1377,0.145,0.1502,0.1571,0.1599,0.1548,0.1541,0.1541,0.1461,0.1567,0.1561,0.1596,0.1599,0.1601,0.1603,0,0.0477,0.0527,0.0608,0.0724,0.0754,0.082,0.0944,0.1037,0.1184,0.126,0.1373,0.1449,0.1608,0.1577,0.1699,0.1665,0.1667,0.1677,0.1677,0.1573,0.1482,0.1496,0.1626,0.1625,0.1623,0.1621,0.162,0,0.0434,0.0549,0.0617,0.0655,0.0786,0.0848,0.0941,0.1068,0.1161,0.135,0.1435,0.1577,0.1692,0.1738,0.1815,0.1773,0.1904,0.1836,0.1727,0.1718,0.173,0.1714,0.1878,0.1878,0.1878,0.1878,0.1878,0,0.043,0.0488,0.0605,0.0639,0.0748,0.085,0.0977,0.1077,0.1235,0.135,0.1503,0.1576,0.1744,0.1835,0.1855,0.1863,0.1938,0.1772,0.1743,0.1771,0.176,0.1738,0.1722,0.1879,0.1879,0.1879,0.1878,0,0.0374,0.0451,0.0531,0.0669,0.0729,0.0813,0.1011,0.1072,0.1249,0.1399,0.149,0.1646,0.1759,0.1862,0.1955,0.191,0.1933,0.1886,0.1928,0.1895,0.1689,0.1678,0.1771,0.1769,0.1767,0.1765,0.1764,0,0.0353,0.0383,0.0532,0.0589,0.066,0.0807,0.0885,0.1075,0.1146,0.1393,0.1438,0.1619,0.1708,0.177,0.1868,0.1916,0.1867,0.1881,0.1778,0.1727,0.1689,0.1681,0.1672,0.1761,0.1761,0.176,0.176,0,0.0305,0.0354,0.0415,0.0521,0.061,0.0726,0.0861,0.0916,0.1131,0.1289,0.1392,0.1494,0.159,0.1676,0.1759,0.1762,0.1905,0.1859,0.1861,0.1763,0.1716,0.1678,0.1672,0.1753,0.1754,0.1755,0.1755,0,0.0265,0.0289,0.0358,0.0457,0.0546,0.0611,0.0714,0.0816,0.0937,0.1207,0.1216,0.1392,0.154,0.1589,0.1649,0.1703,0.164,0.1595,0.1609,0.1617,0.156,0.1477,0.1446,0,0,0,0,0,0.0233,0.0246,0.0297,0.0387,0.045,0.0518,0.0667,0.0763,0.0964,0.0999,0.1129,0.1217,0.1343,0.1407,0.1425,0.155,0.1633,0.1566,0.1582,0.1717,0.1725,0.1677,0,0,0,0,0,0,0.0207,0.0243,0.026,0.0288,0.0331,0.0402,0.0491,0.0627,0.0677,0.0889,0.0943,0.1134,0.1241,0.1305,0.1388,0.1421,0.1411,0.1685,0.1683,0.1713,0.172,0.1726,0.168,0,0,0,0,0]},{"header":{"parameterUnit":"m.s-1","parameterCategory":2,"la1":30.2991,"la2":30.254,"lo1":-89.0895,"lo2":-89.0444,"dy":0.0017,"dx":0.0017,"nx":28,"ny":28,"refTime":"2024-06-10T03:00:00:Z","depth":"4","parameterNumber":3,"parameterNumberName":"V-component_of_CURRENTS"},"data":[0,0,0,0,0,0,0,0,0,0,0,0,0,0,0,0,0,0,0,0,0,0,0,0,0,0,0,0,0,0,0,0,0,0,0,0,0,0,0,0,0,0,0,0,0,0,0,0,0,0,0,0,0,0,0,0,0,0,0.0669,0.0669,0,0.0654,0.0654,0.0654,0.0641,0.0641,0.0641,0.0641,0.0607,0.0606,0.0605,0,0,0,0,0,0,0,0,0,0,0,0,0,0.058,0.0582,0.0669,0.0669,0.0669,0.0654,0.0654,0.0654,0.0641,0.0641,0.0641,0.0641,0.0607,0.0606,0.0605,0,0,0,0,0,0,0,0,0,0,0,0,0,0.0596,0.0583,0.0669,0.0662,0.0662,0.0655,0.0654,0.0654,0.0641,0.0641,0.0641,0.0642,0.0607,0.0606,0.0605,0.0595,0,0,0.06,0.06,0,0,0,0,0,0,0,0,0.0595,0.0599,0.0663,0.0663,0.0662,0.0651,0.061,0.0634,0.0641,0.0647,0.0641,0.0642,0.0621,0.0618,0.0613,0.0593,0.0592,0.06,0.0599,0.0599,0.0598,0,0,0,0,0,0,0,0.0594,0.0599,0.0661,0.0663,0.0663,0.0624,0.0627,0.0614,0.0632,0.0647,0.0646,0.0647,0.062,0.0615,0.0612,0.0591,0.06,0.0599,0.0598,0.0597,0.0545,0.0545,0,0,0,0,0,0,0.0606,0.0599,0.0662,0.0661,0.063,0.0626,0.0629,0.0653,0.0633,0.063,0.0647,0.0647,0.0617,0.0614,0.0611,0.0603,0.0599,0.0597,0.0597,0.0546,0.0545,0.0545,0,0,0,0,0,0,0.0604,0.0612,0.0662,0.0629,0.0633,0.0628,0.0655,0.0653,0.0657,0.0634,0.0631,0.0654,0.0617,0.0613,0.0604,0.0602,0.0597,0.0595,0.0547,0.0546,0.0545,0.0585,0,0,0,0,0,0,0.0602,0.0612,0.0639,0.0631,0.0636,0.0663,0.0655,0.0653,0.0658,0.0657,0.0639,0.0635,0.0617,0.0606,0.0602,0.06,0.0594,0.0547,0.0546,0.0545,0.0584,0.0586,0.0587,0,0,0,0,0,0.0599,0.0633,0.0641,0.0649,0.0672,0.0663,0.0662,0.0656,0.0658,0.0659,0.0647,0.0636,0.0596,0.0605,0.0601,0.0598,0.0548,0.0547,0.0545,0.0584,0.0585,0.0587,0,0,0,0,0,0,0.0606,0.0635,0.0643,0.0685,0.0678,0.0662,0.0669,0.0664,0.0656,0.0659,0.0637,0.0632,0.062,0.0602,0.0612,0.0576,0.0567,0.0565,0.0597,0.0599,0.06,0.0602,0.0593,0,0,0,0,0,0.0622,0.0661,0.0662,0.0695,0.0695,0.0684,0.0684,0.0678,0.0667,0.0664,0.0653,0.0633,0.061,0.0601,0.0581,0.0569,0.0519,0.0559,0.0561,0.0562,0.0559,0.0475,0.0468,0.0541,0.0541,0.0541,0,0,0.0638,0.0656,0.068,0.0699,0.0696,0.0691,0.0684,0.0686,0.0681,0.0661,0.066,0.0641,0.0608,0.0591,0.0583,0.0578,0.0515,0.0561,0.0562,0.0558,0.0473,0.0466,0.0459,0.054,0.054,0.054,0,0,0.0659,0.0698,0.0722,0.0716,0.0715,0.0708,0.0711,0.0701,0.0699,0.0695,0.0672,0.0652,0.0633,0.0599,0.058,0.0574,0.0525,0.057,0.0579,0.0498,0.0491,0.0485,0.0413,0.04,0.0569,0.057,0.057,0,0.0671,0.0708,0.0722,0.0723,0.0726,0.0717,0.0719,0.0709,0.0698,0.069,0.0701,0.0645,0.0631,0.0581,0.0588,0.0577,0.0526,0.0581,0.05,0.0492,0.0485,0.0413,0.0398,0.0571,0.0571,0.0571,0.0571,0,0.0687,0.0717,0.0726,0.0736,0.0736,0.0739,0.0726,0.0721,0.0727,0.0712,0.0682,0.0655,0.0621,0.0611,0.0608,0.0546,0.0525,0.0513,0.0499,0.048,0.0405,0.0389,0.0574,0.0573,0.0573,0.0572,0,0,0.0715,0.0737,0.0743,0.0749,0.0747,0.0746,0.0738,0.0724,0.0708,0.0698,0.0678,0.0645,0.0633,0.061,0.0586,0.0526,0.0447,0.051,0.0505,0.0445,0.0267,0.0257,0.0238,0.0419,0.0417,0.0414,0.0236,0,0.0723,0.0743,0.0752,0.0764,0.0769,0.076,0.0753,0.0735,0.0717,0.0693,0.0656,0.064,0.0629,0.0628,0.0559,0.0483,0.0405,0.0496,0.029,0.0283,0.0281,0.0219,0.0406,0.0224,0.022,0.0217,0.0215,0,0.0725,0.0747,0.0772,0.0784,0.0786,0.079,0.0773,0.0774,0.0727,0.0715,0.0672,0.0645,0.0583,0.058,0.0403,0.0463,0.0369,0.0297,0.0287,0.0252,0.0242,0.0244,0.0185,0.0187,0.0189,0.0191,0.0193,0,0.0727,0.0753,0.0787,0.079,0.08,0.0809,0.0822,0.0784,0.0791,0.0747,0.0734,0.0634,0.0607,0.0471,0.0347,0.0372,0.0134,0.0144,0.0027,0.0025,0.0074,0.0082,-0.0013,-0.0013,-0.0013,-0.0012,-0.0012,0,0.072,0.0743,0.0796,0.0808,0.085,0.0846,0.0877,0.0853,0.0835,0.0831,0.077,0.0714,0.0579,0.0439,0.0319,0.012,0.0101,0.0007,-0.0031,0.0095,0.0108,0.0061,0.0073,-0.0019,-0.0017,-0.0016,-0.0015,0,0.0699,0.0739,0.078,0.0825,0.0855,0.0891,0.0957,0.0944,0.0934,0.0923,0.0925,0.0775,0.059,0.042,0.0185,0.0087,-0.0096,-0.0169,-0.0028,-0.0052,-0.0144,-0.0129,-0.0317,-0.0319,-0.0321,-0.0323,-0.0324,0,0.0686,0.0709,0.0809,0.0859,0.089,0.0965,0.0993,0.101,0.1004,0.0942,0.0914,0.0747,0.0633,0.0275,0.0103,-0.0163,-0.0191,-0.0282,-0.0207,-0.0162,-0.0181,-0.0163,-0.0146,-0.0327,-0.0327,-0.0327,-0.0328,0,0.0658,0.0709,0.0745,0.0854,0.0915,0.0997,0.1048,0.1056,0.1054,0.1043,0.0892,0.0721,0.0489,0.0245,0.0034,-0.015,-0.0211,-0.03,-0.0297,-0.0227,-0.0176,-0.0188,-0.017,-0.0334,-0.0333,-0.0333,-0.0332,0,0.0643,0.0675,0.0742,0.0834,0.0919,0.0988,0.1032,0.1014,0.1022,0.0957,0.0894,0.0668,0.0543,0.0246,0.0048,-0.0128,-0.0159,-0.0188,-0.0191,-0.0187,-0.0079,0.001,-0.0147,0,0,0,0,0,0.0622,0.066,0.0721,0.0811,0.0883,0.0957,0.1029,0.1055,0.1064,0.0958,0.094,0.0729,0.0418,0.0263,0.0081,0.002,-0.0185,-0.0197,-0.0219,-0.0368,-0.0361,-0.0255,0,0,0,0,0,0,0.0613,0.0663,0.0699,0.0766,0.0833,0.091,0.0976,0.0982,0.0938,0.0922,0.0746,0.0691,0.0377,0.0518,0.0075,0.002,-0.0016,-0.0335,-0.0338,-0.0372,-0.0365,-0.036,-0.0249,0,0,0,0,0]}]]